Weather History for Pella, IA

Change the Weather History Date:

Monday, December 31, 2012

  Actual Average (KOXV) Record (KOXV)
Temperature  
Mean Temperature 25 °F -  
Max Temperature 36 °F 29 °F 62 °F (1965)
Min Temperature 12 °F 13 °F -14 °F (1968)
Degree Days  
Heating Degree Days 40    
Moisture  
Dew Point 14 °F    
Average Humidity 74    
Maximum Humidity 83    
Minimum Humidity 64    
Precipitation  
Precipitation 0.00 in - - ()
Sea Level Pressure  
Sea Level Pressure 30.16 in    
Wind  
Wind Speed 11 mph (NW)    
Max Wind Speed 14 mph    
Max Gust Speed 20 mph    
Visibility 10 miles    
Events      
Averages and records for this station are not official NWS values.
T = Trace of Precipitation, MM = Missing Value Source: NWS Daily Summary

Daily Weather History Graph

Daily Weather History Graph

Search for Another Location

Airport:

Trip Planner

Search our weather history database for the weather conditions in past years. The results will help you decide how hot, cold, wet, or windy it might be!

Date:

Astronomy

Dec. 31, 2012 Rise Set
Actual Time 7:37 AM CST 4:52 PM CST
Civil Twilight 7:06 AM CST 5:23 PM CST
Nautical Twilight 6:31 AM CST 5:58 PM CST
Astronomical Twilight 5:58 AM CST 6:32 PM CST
Moon 8:26 PM CST 9:17 AM CST
Length of Visible Light 10h 17m
Length of Day
9h 14m
Waning Gibbous, 90% of the Moon is Illuminated
Dec 31
Waning Gibbous
Jan 4
Last Quarter
Jan 11
New
Jan 18
First Quarter
Jan 26
Full

Hourly Weather History & Observations

Time (CST) Temp. Windchill Dew Point Humidity Pressure Visibility Wind Dir Wind Speed Gust Speed Precip Events Conditions
12:15 AM 36.5 °F 28.2 °F 25.5 °F 64% 30.04 in 10.0 mi West 12.7 mph 16.1 mph N/A   Clear
12:35 AM 35.1 °F 26.9 °F 25.5 °F 68% 30.04 in 10.0 mi West 11.5 mph - N/A   Clear
12:55 AM 34.2 °F 26.2 °F 25.7 °F 71% 30.05 in 10.0 mi West 10.4 mph - N/A   Clear
1:15 AM 33.6 °F 24.1 °F 25.2 °F 71% 30.05 in 10.0 mi West 13.8 mph - N/A   Clear
1:35 AM 33.3 °F 25.7 °F 24.8 °F 71% 30.06 in 10.0 mi West 9.2 mph - N/A   Clear
1:55 AM 32.9 °F 24.7 °F 24.8 °F 72% 30.08 in 10.0 mi West 10.4 mph - N/A   Clear
2:15 AM 32.2 °F 26.7 °F 25.0 °F 75% 30.08 in 10.0 mi WNW 5.8 mph - N/A   Clear
2:35 AM 30.7 °F 20.4 °F 24.3 °F 77% 30.09 in 10.0 mi NW 13.8 mph - N/A   Clear
2:55 AM 28.8 °F 19.0 °F 20.3 °F 71% 30.11 in 10.0 mi NW 11.5 mph 19.6 mph N/A   Clear
3:15 AM 26.8 °F 15.9 °F 19.6 °F 74% 30.11 in 10.0 mi NW 12.7 mph - N/A   Clear
3:35 AM 25.7 °F 14.0 °F 18.5 °F 74% 30.11 in 10.0 mi NW 13.8 mph - N/A   Clear
3:55 AM 25.3 °F 15.3 °F 17.2 °F 71% 30.11 in 10.0 mi NW 10.4 mph - N/A   Clear
4:15 AM 24.8 °F 15.3 °F 16.9 °F 72% 30.12 in 10.0 mi WNW 9.2 mph - N/A   Clear
4:35 AM 24.4 °F 12.4 °F 16.7 °F 72% 30.12 in 10.0 mi NW 13.8 mph - N/A   Clear
4:55 AM 23.9 °F 12.3 °F 16.0 °F 72% 30.12 in 10.0 mi NW 12.7 mph - N/A   Clear
5:15 AM 23.0 °F 12.4 °F 15.8 °F 74% 30.12 in 10.0 mi NW 10.4 mph - N/A   Clear
5:35 AM 22.5 °F 10.5 °F 15.8 °F 76% 30.12 in 10.0 mi NW 12.7 mph - N/A   Clear
5:55 AM 21.9 °F 10.4 °F 15.4 °F 76% 30.13 in 10.0 mi NW 11.5 mph - N/A   Clear
6:15 AM 21.2 °F 8.9 °F 15.1 °F 77% 30.13 in 10.0 mi NW 12.7 mph - N/A   Clear
6:35 AM 21.0 °F 8.1 °F 15.1 °F 78% 30.14 in 10.0 mi NW 13.8 mph - N/A   Clear
6:55 AM 20.3 °F 9.0 °F 14.7 °F 79% 30.16 in 10.0 mi NW 10.4 mph - N/A   Clear
7:15 AM 20.3 °F 9.0 °F 14.9 °F 80% 30.15 in 10.0 mi NW 10.4 mph - N/A   Clear
7:35 AM 19.9 °F 7.9 °F 14.5 °F 80% 30.16 in 10.0 mi NNW 11.5 mph - N/A   Clear
7:55 AM 19.8 °F 9.9 °F 14.7 °F 81% 30.17 in 10.0 mi NNW 8.1 mph - N/A   Clear
8:15 AM 19.4 °F 11.5 °F 14.7 °F 82% 30.17 in 10.0 mi NW 5.8 mph - N/A   Clear
8:35 AM 19.4 °F 10.4 °F 14.9 °F 83% 30.16 in 10.0 mi NW 6.9 mph - N/A   Clear
8:55 AM 19.8 °F 9.9 °F 14.9 °F 81% 30.17 in 10.0 mi NW 8.1 mph - N/A   Clear
9:15 AM 20.1 °F 9.5 °F 15.6 °F 83% 30.17 in 10.0 mi NW 9.2 mph - N/A   Clear
9:35 AM 20.3 °F 9.0 °F 15.8 °F 83% 30.18 in 10.0 mi NW 10.4 mph - N/A   Scattered Clouds
9:55 AM 20.7 °F 11.0 °F 15.8 °F 81% 30.19 in 10.0 mi NW 8.1 mph - N/A   Scattered Clouds
10:15 AM 21.0 °F 9.9 °F 15.3 °F 78% 30.19 in 10.0 mi NW 10.4 mph - N/A   Scattered Clouds
10:35 AM 21.2 °F 9.5 °F 14.0 °F 74% 30.19 in 10.0 mi NNW 11.5 mph - N/A   Clear
10:55 AM 20.8 °F 9.7 °F 12.6 °F 70% 30.19 in 10.0 mi NNW 10.4 mph - N/A   Clear
11:15 AM 20.8 °F 10.4 °F 12.2 °F 69% 30.20 in 10.0 mi North 9.2 mph 18.4 mph N/A   Clear
11:35 AM 21.0 °F 9.9 °F 12.6 °F 70% 30.20 in 10.0 mi NNW 10.4 mph - N/A   Clear
11:55 AM 21.0 °F 9.9 °F 11.8 °F 68% 30.20 in 10.0 mi NNW 10.4 mph 16.1 mph N/A   Clear
12:15 PM 20.8 °F 8.4 °F 11.8 °F 68% 30.19 in 10.0 mi NNW 12.7 mph - N/A   Clear
12:35 PM 20.8 °F 10.4 °F 12.2 °F 69% 30.18 in 10.0 mi NNW 9.2 mph - N/A   Clear
12:55 PM 21.0 °F 10.6 °F 13.1 °F 71% 30.18 in 10.0 mi NW 9.2 mph - N/A   Clear
1:15 PM 20.8 °F 9.0 °F 12.9 °F 71% 30.15 in 10.0 mi NW 11.5 mph - N/A   Scattered Clouds
1:35 PM 21.0 °F 8.1 °F 12.6 °F 70% 30.16 in 10.0 mi NW 13.8 mph - N/A   Clear
1:55 PM 20.7 °F 9.5 °F 12.0 °F 69% 30.16 in 10.0 mi NW 10.4 mph - N/A   Clear
2:15 PM 21.0 °F 8.1 °F 12.4 °F 69% 30.14 in 10.0 mi NNW 13.8 mph - N/A   Clear
2:35 PM 20.8 °F 9.0 °F 12.6 °F 70% 30.14 in 10.0 mi NNW 11.5 mph - N/A   Clear
2:55 PM 20.3 °F 9.0 °F 12.0 °F 70% 30.14 in 10.0 mi NNW 10.4 mph - N/A   Clear
3:15 PM 20.3 °F 7.2 °F 12.2 °F 71% 30.14 in 10.0 mi NNW 13.8 mph - N/A   Clear
3:35 PM 20.3 °F 10.6 °F 12.4 °F 71% 30.15 in 10.0 mi NNW 8.1 mph - N/A   Clear
3:55 PM 20.1 °F 9.5 °F 12.6 °F 73% 30.15 in 10.0 mi NNW 9.2 mph - N/A   Clear
4:15 PM 20.1 °F 8.8 °F 12.4 °F 72% 30.15 in 10.0 mi NNW 10.4 mph - N/A   Clear
4:35 PM 19.8 °F 8.3 °F 11.8 °F 71% 30.15 in 10.0 mi NNW 10.4 mph - N/A   Clear
4:55 PM 19.4 °F 7.9 °F 11.8 °F 72% 30.16 in 10.0 mi NNW 10.4 mph - N/A   Clear
5:15 PM 19.2 °F 7.7 °F 12.0 °F 74% 30.16 in 10.0 mi NNW 10.4 mph - N/A   Clear
5:35 PM 19.0 °F 7.5 °F 12.4 °F 75% 30.16 in 10.0 mi NNW 10.4 mph - N/A   Clear
6:15 PM 18.5 °F 8.4 °F 11.8 °F 75% 30.18 in 10.0 mi NNW 8.1 mph - N/A   Clear
6:35 PM 18.3 °F 7.3 °F 11.8 °F 76% 30.19 in 10.0 mi NNW 9.2 mph - N/A   Clear
6:55 PM 18.3 °F 7.3 °F 11.5 °F 75% 30.19 in 10.0 mi NNW 9.2 mph - N/A   Clear
7:15 PM 18.1 °F 7.9 °F 11.3 °F 75% 30.19 in 10.0 mi NW 8.1 mph - N/A   Clear
7:35 PM 18.0 °F 7.7 °F 11.1 °F 75% 30.19 in 10.0 mi NNW 8.1 mph - N/A   Clear
7:55 PM 18.0 °F 7.7 °F 11.3 °F 75% 30.19 in 10.0 mi NW 8.1 mph - N/A   Clear
8:15 PM 18.0 °F 7.7 °F 11.7 °F 76% 30.20 in 10.0 mi NW 8.1 mph - N/A   Clear
8:35 PM 17.4 °F 4.7 °F 9.5 °F 71% 30.20 in 10.0 mi NNW 11.5 mph - N/A   Clear
9:15 PM 16.9 °F 5.5 °F 8.8 °F 71% 30.22 in 10.0 mi NW 9.2 mph - N/A   Clear
9:35 PM 16.7 °F 5.3 °F 8.6 °F 70% 30.21 in 10.0 mi NNW 9.2 mph - N/A   Clear
10:15 PM 16.2 °F 3.2 °F 7.3 °F 68% 30.22 in 10.0 mi NNW 11.5 mph - N/A   Clear
10:35 PM 15.8 °F 7.2 °F 7.3 °F 69% 30.23 in 10.0 mi NNW 5.8 mph - N/A   Clear
11:15 PM 15.1 °F 4.2 °F 7.5 °F 72% 30.24 in 10.0 mi NNW 8.1 mph - N/A   Clear
11:35 PM 14.2 °F 1.4 °F 6.8 °F 73% 30.24 in 10.0 mi NNW 10.4 mph - N/A   Clear
11:55 PM 12.9 °F -0.2 °F 5.9 °F 74% 30.23 in 10.0 mi NNW 10.4 mph - N/A   Clear